STARLINK-4055 (53161 NORAD) Tracking and Keplerian Element Data

This shows tracking and keplerian element data for the satellite.

Feedback or suggestion? Click here.




ElementValue
Catalog53161
NameSTARLINK-4055
Epoch Orbit1185
Epoch Day270.25001157
Epoch Year2022
RAAN58.1141
Inclination53.2174
Eccentricity0.0001492
Argument of Perigee55.4098
Mean Anonmoly69.1075
Mean Motion15.20017091
Decay Rate-0.01061456
L11 53161U 22083AF 22270.25001157 -.01061456 00000+0 -53138-1 0 9990
L22 53161 53.2174 58.1141 0001492 55.4098 69.1075 15.20017091 11856

Live tracking and technical data element details for STARLINK-4055 (NORAD 53161). STARLINK-4055 can be tracked NOW for your location showing map with azimuth and elevation plus other details from your city location.

Track the satellite on the map from your city or location and see movement details for azimuth, elevation, latitude, longitude, range, height, and movement on the map or in text.







IsCatalogInMostPopularTable: catalog: 53161, numindb: 8
Update: records affected: 1



GetName: 53161 STARLINK-4055

Hit Count: updated at: Wed, 28 Sep 2022 21:50:03 GMT